Airport Information

KMFR - Rogue Valley Intl Medford Airport

KMFR 210553Z AUTO 31005KT 10SM BKN040 OVC060 10/04 A3014 RMK AO2 SLP206 T01000044 10150 20100 51020


  • General Information

  • Coordinates: N 42°22'27"/ W 122°52'24"
  • Location: N/A
  • Surveyed Elevation: 1335 MSL

Operations

Flow Name Active Runways Conditions

Green background denotes normal operations.


Common Frequencies

Callsign Frequency Position Name

More at the Document Center


Charts